User: anonymous   Login
Location: Friaudour
(46.0460°N, 1.2873°E)
Time: 08:46:42
(UTC+00:00)
Language:

Cosmos 1242 Rocket - Orbit

View from above orbital plane
View from above orbital plane
View from above satellite
View from above satellite

Ground track
Ground track

The orbit data is extracted from the following two-line orbital elements,

1 12155U 81008B   20272.88475906 +.00001782 +00000-0 +54510-4 0  9998
2 12155 081.1599 076.4760 0027926 192.4971 167.5578 15.32890740144308
Epoch (UTC): 28 September 2020 21:14:03
Eccentricity: 0.0027926
inclination: 81.1599°
perigee height: 448 km
apogee height: 486 km
right ascension of ascending node: 76.4760°
argument of perigee: 192.4971°
revolutions per day: 15.32890740
mean anomaly at epoch: 167.5578°
orbit number at epoch: 14430

The dashed part of the orbit path shows where the satellite is in the earth's shadow,  

DLR